Miscellaneous Local Product
Issued by NWS Hastings, NE

Home | Current Version | Previous Version | Graphics & Text | Print | Product List | Glossary On
Versions: 1 2 3 4 5 6 7 8 9 10 11 12 13 14 15 16 17 18 19 20 21 22 23 24 25 26 27 28 29 30 31 32 33 34 35 36 37 38 39 40 41 42 43 44 45 46 47 48 49 50
000
AXUS43 KGID 270202
MISGRI

GID CWA HOURLY WEATHER ROUNDUP
NATIONAL WEATHER SERVICE HASTINGS NE
900 PM CDT SAT JUL 26 2014

NOTE: "FAIR" INDICATES FEW OR NO CLOUDS BELOW 12,000 FEET WITH NO
SIGNIFICANT WEATHER AND/OR OBSTRUCTIONS TO VISIBILITY.

...SOUTH CENTRAL NEBRASKA...

CITY           SKY/WX    TMP DP  RH WIND       PRES   REMARKS
GRAND ISLAND   CLEAR     81  71  71 NW8       29.96R
HASTINGS       PTCLDY    81  70  69 N8        29.95R
KEARNEY        PTCLDY    81  72  74 NW7       29.98R
ORD            CLEAR     73  67  81 NW6       29.99R
YORK           PTCLDY    77  75  94 N7        29.93R
AURORA         PTCLDY    78  74  86 NW3       29.95R
LEXINGTON      PTCLDY    76  68  76 N6        30.00S
HOLDREGE       MOCLDY    78  72  82 N6        29.98R
HEBRON         PTCLDY    86  74  66 N7        29.88R HX  94

...NEBRASKA PANHANDLE...

CITY           SKY/WX    TMP DP  RH WIND       PRES   REMARKS
CHADRON        CLEAR     78  48  34 NE7       30.10R
ALLIANCE       MOCLDY    78  45  30 NE9       30.13R
SCOTTSBLUFF    CLEAR     79  57  46 E7        30.12R
SIDNEY         CLEAR     79  62  56 SE14      30.16R

...WESTERN AND NORTH CENTRAL NEBRASKA...

CITY           SKY/WX    TMP DP  RH WIND       PRES   REMARKS
VALENTINE      CLEAR     80  48  32 N3        30.05R
AINSWORTH      CLEAR     74  54  48 NW5       30.05R
ONEILL         CLEAR     76  61  59 N3        29.99R
BROKEN BOW     CLEAR     72  64  76 NW5       30.03R
IMPERIAL       PTCLDY    76  66  71 N7        30.08R
NORTH PLATTE   CLEAR     75  60  59 NE6       30.05R
MCCOOK         PTCLDY    79  67  66 NE8       30.02R

...EASTERN NEBRASKA...

CITY           SKY/WX    TMP DP  RH WIND       PRES   REMARKS
NORFOLK        CLEAR     79  71  76 N12       29.94R
SO SIOUX CITY  MOCLDY    81  71  71 N8        29.90R
COLUMBUS       CLEAR     79  72  78 N6        29.92R
ALBION         CLEAR     77  69  76 N5        29.97R
OMAHA EPPLEY   MOCLDY    82  73  74 N6        29.88R
OFFUTT AFB     MOCLDY    81  78  93 N8        29.87R
MILLARD        PTCLDY    83  74  73 N3        29.88R HX  90
LINCOLN        CLEAR     82  75  79 N7        29.89R
NEBRASKA CITY  CLEAR     79  77  94 N6        29.87R
BEATRICE       CLEAR     83  78  86 NE6       29.87R HX  92
FALLS CITY     NOT AVBL

...NORTHERN KANSAS...

CITY           SKY/WX    TMP DP  RH WIND       PRES   REMARKS
GOODLAND       MOCLDY    81  62  52 NE15      30.08R
HILL CITY      CLEAR     85  67  54 N6        29.96R
NORTON         CLEAR     81  63  54 N10       29.98R
PHILLIPSBURG   CLEAR     88  66  48 N14G20    29.92R HX  90
SMITH CENTER   CLEAR     88  70  55 N15       29.90R HX  92
HAYS           CLEAR     90  64  43 NE8       29.92R HX  91
RUSSELL        PTCLDY    92  67  43 N9        29.88R HX  95
CONCORDIA      CLEAR     87  77  72 NE6       29.86R HX  99
SALINA         CLEAR     95  67  39 SW7       29.82R HX  99
TOPEKA         CLEAR     90  74  59 CALM      29.79R HX  99



USA.gov is the U.S. government's official web portal to all federal, state and local government web resources and services.